Starlink 30295

operational
NORAD ID: 57683 Int'l Des: 2023-124 Owner: SPXS Country: US Constellation: starlink
LEOCIRCULAR

关于 Starlink 30295

正在加载描述...

实时位置

正在加载3D地球...

即将过境

高度历史

Altitude vs Time

uPlot chart will show altitude changes over time

两行轨道根数

1 57683U 23124W 25353.02588571 .00000290 00000-0 21929-4 0 9993
2 57683 53.1597 221.7474 0001444 96.1235 263.9930 15.30190195131211
Epoch: Dec 19, 2025 • Age: 28 hours

当前状态

高度 491.1 km
速度 7.62 km/s
星下点 -44.56°S, 70.2°W
发射日期 Aug 22, 2023
运行时间 2.3 years
类型 internet

技术详情

分类 Payload
质量 730.00 kg
干质量 700.00 kg
总质量 730.00 kg
长度 0.30 m
直径 4.10 m
跨度 29.00 m
形状 Box + pan
制造商 SPXS
平台类型 Starlink V2M
阶段状态 In Orbit
所有者/国家 SPXS/US

大型星座

Loading constellations...